WetterOnline ( https://www.wetteronline.ch )

Wetter aktuell Waldmünchen

Aktuelles Wetter: Waldmünchen (499m)

6-stündlich | Neueste Meldungen
Ortszeit Temperatur Wetter
Mi, 15.07. 2:00 9.8° C bedeckt
Di, 14.07. 20:00 21.8° C wolkig
Di, 14.07. 14:00 22.2° C leicht bewölkt
Di, 14.07. 8:00 14.0° C wolkenlos
Di, 14.07. 2:00 9.7° C wolkenlos
Mo, 13.07. 20:00 19.2° C fast wolkenlos
Mo, 13.07. 14:00 19.8° C leicht bewölkt
Mo, 13.07. 8:00 12.4° C wolkenlos
Ortszeit Temperatur Wetter
Mi, 15.07. 6:30 10.9° C bewölkt
Mi, 15.07. 6:20 10.9° C bewölkt
Mi, 15.07. 6:10 11.0° C wolkig
Mi, 15.07. 6:00 10.7° C wolkig
Mi, 15.07. 5:50 10.7° C wolkig
Mi, 15.07. 5:40 10.7° C wolkig
Mi, 15.07. 5:30 10.7° C bewölkt
Mi, 15.07. 5:00 10.4° C bewölkt
Ortszeit Relative Feuchte Sichtweite
Mi, 15.07. 2:00 92% 55 km
Di, 14.07. 20:00 44% 60 km
Di, 14.07. 14:00 40% 65 km
Di, 14.07. 8:00 71% 60 km
Di, 14.07. 2:00 87% >70 km
Mo, 13.07. 20:00 46% >70 km
Mo, 13.07. 14:00 42% 55 km
Mo, 13.07. 8:00 80% 45 km
Ortszeit Relative Feuchte Sichtweite
Mi, 15.07. 6:30 92% 45 km
Mi, 15.07. 6:20 92% -
Mi, 15.07. 6:10 89% -
Mi, 15.07. 6:00 91% 55 km
Mi, 15.07. 5:50 91% -
Mi, 15.07. 5:40 90% -
Mi, 15.07. 5:30 91% 60 km
Mi, 15.07. 5:00 91% 55 km
Ortszeit Niederschlagsmenge Niederschlagsart
Mi, 15.07. 2:00 0.0 l/m2 in 6 Std. -
Di, 14.07. 20:00 0.0 l/m2 in 12 Std. -
Di, 14.07. 14:00 0.0 l/m2 in 6 Std. -
Di, 14.07. 8:00 0.0 l/m2 in 12 Std. -
Di, 14.07. 2:00 0.0 l/m2 in 6 Std. -
Mo, 13.07. 20:00 0.0 l/m2 in 12 Std. -
Mo, 13.07. 14:00 0.0 l/m2 in 6 Std. -
Mo, 13.07. 8:00 0.0 l/m2 in 12 Std. -
Ortszeit Niederschlagsmenge Niederschlagsart
Mi, 15.07. 6:30 0.0 l/m2 in 1 Std. -
Mi, 15.07. 6:20 keine Meldung -
Mi, 15.07. 6:10 keine Meldung -
Mi, 15.07. 6:00 0.0 l/m2 in 1 Std. -
Mi, 15.07. 5:50 keine Meldung -
Mi, 15.07. 5:40 keine Meldung -
Mi, 15.07. 5:30 0.0 l/m2 in 1 Std. -
Mi, 15.07. 5:00 0.0 l/m2 in 1 Std. -
Ortszeit Stärke Spitze Richtung
km/h Bft. km/h Grad Sektor
Mi, 15.07. 2:00 4 1 11 120° SO
Di, 14.07. 20:00 4 1 18 250° W
Di, 14.07. 14:00 7 2 25 220° SW
Di, 14.07. 8:00 0 0 11 - -
Di, 14.07. 2:00 6 1 19 60° NO
Mo, 13.07. 20:00 11 2 32 50° NO
Mo, 13.07. 14:00 15 3 30 10° N
Mo, 13.07. 8:00 4 1 11 200° S
Ortszeit Stärke Spitze Richtung
km/h Bft. km/h Grad Sektor
Mi, 15.07. 6:30 4 1 7 60° NO
Mi, 15.07. 6:20 4 1 - 60° NO
Mi, 15.07. 6:10 2 1 - 30° NO
Mi, 15.07. 6:00 4 1 7 60° NO
Mi, 15.07. 5:50 4 1 - 60° NO
Mi, 15.07. 5:40 2 1 - 70° O
Mi, 15.07. 5:30 4 1 7 80° O
Mi, 15.07. 5:00 0 0 7 - -
Ortszeit Untergrenze Bedeckung Gattung
total tief tief mittel hoch
Mi, 15.07. 2:00 6600 m 8/8 8/8 - - -
Di, 14.07. 20:00 6900 m 7/8 2/8 - - -
Di, 14.07. 14:00 1800 m 7/8 1/8 - - -
Di, 14.07. 8:00 - 0/8 0/8 - - -
Di, 14.07. 2:00 - 0/8 0/8 - - -
Mo, 13.07. 20:00 7800 m 1/8 0/8 - - -
Mo, 13.07. 14:00 8400 m 7/8 0/8 - - -
Mo, 13.07. 8:00 - 0/8 0/8 - - -
Ortszeit Bedeckungsgrad in Achtel und Wolkenuntergrenze
Mi, 15.07. 6:30 7(3300m) 7(3900m)
Mi, 15.07. 6:20 7(3300m) 7(3900m)
Mi, 15.07. 6:10 1(2100m) 7(3300m) 8(3900m)
Mi, 15.07. 6:00 3(2400m) 8(3300m) 8(3900m)
Mi, 15.07. 5:50 3(2400m) 8(3300m) 8(3900m)
Mi, 15.07. 5:40 3(2400m) 8(3300m) 8(3900m)
Mi, 15.07. 5:30 6(2400m) 8(3300m) 8(3900m)
Mi, 15.07. 5:00 7(2700m) 8(3300m)
Ortszeit Luftdruck NN (hPa) Tendenz (hPa in 3 Std.)
Mi, 15.07. 2:00 1014 - 0,3
Di, 14.07. 20:00 1012 - 0,9
Di, 14.07. 14:00 1014 - 1,5
Di, 14.07. 8:00 1018 - 0,4
Di, 14.07. 2:00 1020 - 0,8
Mo, 13.07. 20:00 1019 - 1,1
Mo, 13.07. 14:00 1022 - 1,5
Mo, 13.07. 8:00 1025 - 0,3
Ortszeit Luftdruck NN (hPa) Tendenz (hPa in 3 Std.)
Mi, 15.07. 6:30 1013 - 0,6
Mi, 15.07. 6:20 1013 keine Meldung
Mi, 15.07. 6:10 1013 keine Meldung
Mi, 15.07. 6:00 1013 - 0,6
Mi, 15.07. 5:50 1013 keine Meldung
Mi, 15.07. 5:40 1013 keine Meldung
Mi, 15.07. 5:30 1013 - 0,6
Mi, 15.07. 5:00 1013 - 0,7
Ortszeit Schneehöhe (cm)
Mi, 15.07. 2:00 -
Di, 14.07. 20:00 -
Di, 14.07. 14:00 -
Di, 14.07. 8:00 -
Di, 14.07. 2:00 -
Mo, 13.07. 20:00 -
Mo, 13.07. 14:00 -
Mo, 13.07. 8:00 -
Ortszeit Schneehöhe (cm)
Mi, 15.07. 6:30 -
Mi, 15.07. 6:20 -
Mi, 15.07. 6:10 -
Mi, 15.07. 6:00 -
Mi, 15.07. 5:50 -
Mi, 15.07. 5:40 -
Mi, 15.07. 5:30 -
Mi, 15.07. 5:00 -
Link zu dieser Seite / Seite empfehlen

Das Wetter in ...